C/2019 K1 ( ATLAS )

Japanese version
Home page
Updated on August 6, 2019

---------------------------------------------------------------------

* Profile

Discovery Date May 16, 2019
Magnitude 17.1 mag
Discoverer Asteroid Terrestrial-Impact Last Alert System (ATLAS) search program

* Pictures

* Orbital Elements

Epoch 2020 Feb. 1.0 TT = JDT 2458880.5                                          
T 2020 Feb. 12.95182 TT                                 MPCLINUX                
q   2.0127966            (2000.0)            P               Q                  
z  +0.0000294      Peri.  265.69835     +0.02597847     +0.28886367             
 +/-0.0000491      Node    73.37531     +0.31723075     +0.90547612             
e   0.9999408      Incl.   87.15424     -0.94799250     +0.31091924             
From 168 observations 2019 May 16-July 26, mean residual 0".7.                  

* Finding Charts

* Magnitudes Graph

        m1 = 9.5 + 5 log d + 10.0 log r

---------------------------------------------------------------------

The orbital elements are published on M.P.E.C. 2019-O98.
The charts are made with StellaNavigator Ver.10 (AstroArts).
The magnitudes graphs are made with Comet for Windows.

---------------------------------------------------------------------

Copyright(C) Seiichi Yoshida (comet@aerith.net). All rights reserved.